| time (UTC) | temp C | wind direction | speed KPH | gust KPH | rain 1hr cm | rain 24hr cm | rain mn cm | humidity % | barometer mb |
| 20260502221629 | 11 | 64 | 0.0 | 0.0 | 0.25 | 0.61 | 0.61 | 99 | 1011.0 |
| 20260502221127 | 11 | 323 | 0.0 | 0.0 | 0.25 | 0.58 | 0.58 | 99 | 1011.2 |
| 20260502220615 | 11 | 306 | 0.0 | 0.0 | 0.25 | 0.56 | 0.56 | 98 | 1011.3 |
| 20260502220106 | 11 | 32 | 0.0 | 0.0 | 0.25 | 0.51 | 0.51 | 97 | 1011.4 |
| 20260502215609 | 11 | 68 | 0.0 | 0.0 | 0.25 | 0.48 | 0.48 | 97 | 1011.3 |
| 20260502215103 | 11 | 31 | 0.0 | 0.0 | 0.28 | 0.48 | 0.48 | 97 | 1011.5 |
| 20260502214603 | 11 | 114 | 0.0 | 0.0 | 0.25 | 0.46 | 0.46 | 97 | 1011.7 |
| 20260502214103 | 11 | 93 | 0.0 | 0.0 | 0.28 | 0.46 | 0.46 | 97 | 1011.5 |
| 20260502213551 | 11 | 56 | 0.0 | 0.0 | 0.25 | 0.43 | 0.43 | 97 | 1011.6 |
| 20260502213055 | 11 | 108 | 0.0 | 0.0 | 0.25 | 0.41 | 0.41 | 97 | 1011.4 |
| 20260502212551 | 11 | 83 | 0.0 | 0.0 | 0.23 | 0.38 | 0.38 | 97 | 1011.5 |
| 20260502212039 | 11 | 79 | 0.0 | 0.0 | 0.25 | 0.38 | 0.38 | 97 | 1011.5 |
| 20260502211540 | 11 | 104 | 0.0 | 0.0 | 0.23 | 0.36 | 0.36 | 98 | 1011.4 |
| 20260502211039 | 12 | 92 | 0.0 | 0.0 | 0.20 | 0.33 | 0.33 | 97 | 1011.6 |
| 20260502210539 | 12 | 54 | 0.0 | 0.0 | 0.20 | 0.30 | 0.30 | 97 | 1011.6 |
| 20260502210039 | 12 | 344 | 0.0 | 0.0 | 0.13 | 0.23 | 0.25 | 97 | 1011.7 |
| 20260502205539 | 12 | 337 | 0.0 | 0.0 | 0.15 | 0.23 | 0.23 | 97 | 1011.9 |
| 20260502205039 | 12 | 310 | 0.0 | 0.0 | 0.13 | 0.20 | 0.20 | 96 | 1012.1 |
| 20260502204539 | 12 | 297 | 0.0 | 0.0 | 0.15 | 0.20 | 0.20 | 96 | 1011.9 |
| 20260502204039 | 12 | 296 | 0.0 | 0.0 | 0.13 | 0.18 | 0.18 | 95 | 1012.2 |
| 20260502203539 | 12 | 287 | 0.0 | 0.0 | 0.15 | 0.18 | 0.18 | 94 | 1012.0 |
| 20260502203039 | 12 | 275 | 0.0 | 0.0 | 0.13 | 0.15 | 0.15 | 94 | 1012.1 |
| 20260502202538 | 12 | 351 | 0.0 | 0.0 | 0.13 | 0.15 | 0.15 | 94 | 1012.2 |
| 20260502202039 | 12 | 303 | 0.0 | 0.0 | 0.10 | 0.13 | 0.13 | 93 | 1012.3 |
| 20260502201539 | 12 | 287 | 0.0 | 0.0 | 0.10 | 0.13 | 0.13 | 93 | 1012.3 |
| 20260502201039 | 12 | 301 | 0.0 | 0.0 | 0.10 | 0.13 | 0.13 | 93 | 1012.3 |
| 20260502200539 | 12 | 329 | 0.0 | 0.0 | 0.08 | 0.10 | 0.10 | 92 | 1012.4 |
| 20260502200039 | 12 | 294 | 0.0 | 0.0 | 0.08 | 0.10 | 0.10 | 92 | 1012.3 |
| 20260502195539 | 12 | 306 | 0.0 | 0.0 | 0.08 | 0.08 | 0.08 | 92 | 1012.5 |
| 20260502195039 | 12 | 269 | 0.0 | 0.0 | 0.08 | 0.08 | 0.08 | 92 | 1012.4 |
| 20260502194539 | 12 | 274 | 0.0 | 0.0 | 0.05 | 0.05 | 0.05 | 92 | 1012.5 |
| 20260502194039 | 12 | 297 | 0.0 | 0.0 | 0.05 | 0.05 | 0.05 | 92 | 1012.4 |
| 20260502193539 | 12 | 276 | 0.0 | 0.0 | 0.03 | 0.03 | 0.03 | 92 | 1012.7 |
| 20260502193040 | 12 | 282 | 0.0 | 0.0 | 0.03 | 0.03 | 0.03 | 93 | 1012.6 |
| 20260502192538 | 13 | 260 | 0.0 | 0.0 | 0.03 | 0.03 | 0.03 | 94 | 1012.4 |
| 20260502192039 | 13 | 284 | 0.0 | 0.0 | 0.03 | 0.03 | 0.03 | 94 | 1012.5 |
| 20260502191538 | 13 | 320 | 0.0 | 0.0 | 0.03 | 0.03 | 0.03 | 96 | 1012.3 |
| 20260502191040 | 13 | 265 | 0.0 | 0.0 | 0.03 | 0.03 | 0.03 | 96 | 1012.6 |
| 20260502190527 | 13 | 318 | 0.0 | 0.0 | 0.03 | 0.03 | 0.03 | 98 | 1012.7 |
| 20260502190027 | 13 | 304 | 0.0 | 0.0 | 0.03 | 0.03 | 0.03 | 99 | 1012.7 |
| 20260502185527 | 13 | 311 | 0.0 | 0.0 | 0.00 | 0.00 | 0.00 | 99 | 1012.7 |
| 20260502185027 | 13 | 286 | 0.0 | 0.0 | 0.00 | 0.00 | 0.00 | 99 | 1012.7 |
| 20260502184527 | 13 | 277 | 0.0 | 0.0 | 0.00 | 0.00 | 0.00 | 99 | 1012.6 |
| 20260502184027 | 13 | 258 | 0.0 | 0.0 | 0.00 | 0.00 | 0.00 | 99 | 1012.6 |
| 20260502183525 | 14 | 291 | 0.0 | 0.0 | 0.00 | 0.00 | 0.00 | 99 | 1012.5 |
| 20260502183027 | 14 | 285 | 0.0 | 0.0 | 0.00 | 0.00 | 0.00 | 99 | 1012.7 |
| 20260502182527 | 14 | 304 | 0.0 | 0.0 | 0.00 | 0.00 | 0.00 | 99 | 1012.7 |
| 20260502182027 | 14 | 39 | 0.0 | 0.0 | 0.00 | 0.00 | 0.00 | 99 | 1012.6 |
| 20260502181521 | 14 | 264 | 0.0 | 0.0 | 0.00 | 0.00 | 0.00 | 99 | 1012.8 |
| 20260502181004 | 15 | 275 | 0.0 | 0.0 | 0.00 | 0.03 | 0.00 | 99 | 1012.7 |
| 20260502180457 | 15 | 273 | 0.0 | 0.0 | 0.00 | 0.03 | 0.00 | 99 | 1012.6 |
| 20260502170439 | 16 | 132 | 0.0 | 0.0 | 0.00 | 0.08 | 0.00 | 99 | 1012.9 |
| 20260502163938 | 16 | 138 | 0.0 | 0.0 | 0.00 | 0.08 | 0.00 | 99 | 1013.2 |
| 20260502163438 | 16 | 292 | 0.0 | 0.0 | 0.00 | 0.08 | 0.00 | 99 | 1013.3 |
| 20260502162938 | 16 | 281 | 0.0 | 0.0 | 0.00 | 0.08 | 0.00 | 99 | 1013.2 |
| 20260502162438 | 16 | 318 | 0.0 | 0.0 | 0.00 | 0.08 | 0.00 | 99 | 1013.4 |
| 20260502161938 | 16 | 281 | 0.0 | 0.0 | 0.00 | 0.08 | 0.00 | 99 | 1013.3 |
| 20260502161435 | 16 | 272 | 0.0 | 0.0 | 0.00 | 0.08 | 0.00 | 99 | 1013.4 |
| 20260502160938 | 16 | 275 | 0.0 | 0.0 | 0.00 | 0.08 | 0.00 | 99 | 1013.4 |
| 20260502160438 | 16 | 281 | 0.0 | 0.0 | 0.00 | 0.08 | 0.00 | 99 | 1013.4 |
| 20260502151926 | 16 | 95 | 0.0 | 0.0 | 0.00 | 0.08 | 0.00 | 99 | 1014.2 |
| 20260502151426 | 16 | 246 | 0.0 | 0.0 | 0.00 | 0.08 | 0.00 | 99 | 1014.3 |
| 20260502150926 | 16 | 243 | 0.0 | 0.0 | 0.00 | 0.08 | 0.00 | 99 | 1014.2 |
| 20260502150426 | 16 | 272 | 0.0 | 0.0 | 0.00 | 0.08 | 0.00 | 99 | 1014.2 |
| 20260502130314 | 17 | 273 | 0.0 | 0.0 | 0.00 | 0.08 | 0.00 | 99 | 1015.4 |
| 20260502123802 | 17 | 27 | 0.0 | 0.0 | 0.00 | 0.08 | 0.00 | 99 | 1015.4 |
| 20260502123303 | 17 | 331 | 0.0 | 0.0 | 0.00 | 0.08 | 0.00 | 99 | 1015.8 |
| 20260502122750 | 17 | 203 | 0.0 | 0.0 | 0.00 | 0.08 | 0.00 | 99 | 1015.8 |
| 20260502122250 | 16 | 268 | 0.0 | 0.0 | 0.00 | 0.08 | 0.00 | 99 | 1015.7 |
| 20260502121750 | 17 | 291 | 0.0 | 0.0 | 0.00 | 0.08 | 0.00 | 99 | 1015.8 |
| 20260502121238 | 16 | 33 | 0.0 | 0.0 | 0.00 | 0.08 | 0.00 | 99 | 1015.8 |
| 20260502120738 | 16 | 47 | 0.0 | 0.0 | 0.00 | 0.08 | 0.00 | 99 | 1016.1 |
| 20260502120237 | 16 | 203 | 0.0 | 0.0 | 0.00 | 0.08 | 0.00 | 99 | 1016.2 |
| 20260502115738 | 16 | 284 | 0.0 | 0.0 | 0.00 | 0.08 | 0.00 | 99 | 1016.1 |
| 20260502115238 | 16 | 220 | 0.0 | 0.0 | 0.00 | 0.08 | 0.00 | 99 | 1016.2 |
| 20260502114737 | 17 | 263 | 0.0 | 0.0 | 0.00 | 0.08 | 0.00 | 99 | 1016.5 |
| 20260502114238 | 16 | 329 | 0.0 | 0.0 | 0.00 | 0.08 | 0.00 | 99 | 1016.5 |
| 20260502113738 | 16 | 218 | 0.0 | 0.0 | 0.00 | 0.08 | 0.00 | 99 | 1016.6 |
| 20260502113238 | 16 | 239 | 0.0 | 0.0 | 0.00 | 0.08 | 0.00 | 99 | 1016.7 |
| 20260502112737 | 16 | 253 | 0.0 | 0.0 | 0.00 | 0.08 | 0.00 | 99 | 1016.6 |
| 20260502112238 | 16 | 265 | 0.0 | 0.0 | 0.00 | 0.08 | 0.00 | 99 | 1016.8 |
| 20260502111738 | 15 | 274 | 0.0 | 0.0 | 0.00 | 0.08 | 0.00 | 99 | 1016.7 |
| 20260502111238 | 15 | 278 | 0.0 | 0.0 | 0.00 | 0.08 | 0.00 | 99 | 1016.6 |
| 20260502110738 | 15 | 285 | 0.0 | 0.0 | 0.00 | 0.08 | 0.00 | 99 | 1016.8 |
| 20260502110238 | 15 | 247 | 0.0 | 0.0 | 0.00 | 0.08 | 0.00 | 99 | 1017.1 |
| 20260502105738 | 15 | 300 | 0.0 | 0.0 | 0.00 | 0.08 | 0.00 | 99 | 1017.0 |
| 20260502105238 | 16 | 259 | 0.0 | 0.0 | 0.00 | 0.08 | 0.00 | 99 | 1016.9 |
| 20260502104738 | 14 | 329 | 0.0 | 0.0 | 0.00 | 0.08 | 0.00 | 99 | 1017.0 |
| 20260502104238 | 14 | 260 | 0.0 | 0.0 | 0.00 | 0.08 | 0.00 | 99 | 1017.0 |
| 20260502103738 | 13 | 292 | 0.0 | 0.0 | 0.00 | 0.08 | 0.00 | 99 | 1017.0 |
| 20260502103238 | 13 | 293 | 0.0 | 0.0 | 0.00 | 0.08 | 0.00 | 99 | 1017.0 |
| 20260502102739 | 14 | 260 | 0.0 | 0.0 | 0.00 | 0.08 | 0.00 | 99 | 1017.1 |
| 20260502102239 | 14 | 235 | 0.0 | 0.0 | 0.00 | 0.08 | 0.00 | 99 | 1017.0 |
| 20260502101738 | 14 | 305 | 0.0 | 0.0 | 0.00 | 0.08 | 0.00 | 99 | 1016.9 |
| 20260502101238 | 13 | 271 | 0.0 | 0.0 | 0.00 | 0.08 | 0.00 | 99 | 1017.2 |
| 20260502100738 | 13 | 234 | 0.0 | 0.0 | 0.00 | 0.08 | 0.00 | 99 | 1017.1 |
| 20260502100238 | 12 | 248 | 0.0 | 0.0 | 0.00 | 0.08 | 0.00 | 99 | 1017.1 |
| 20260502091214 | 12 | 228 | 0.0 | 0.0 | 0.00 | 0.08 | 0.00 | 99 | 1017.6 |
| 20260502090702 | 12 | 267 | 0.0 | 0.0 | 0.00 | 0.08 | 0.00 | 99 | 1017.5 |
| 20260502090201 | 12 | 277 | 0.0 | 0.0 | 0.00 | 0.08 | 0.00 | 99 | 1017.6 |
| 20260502071126 | 8 | 280 | 0.0 | 0.0 | 0.00 | 0.08 | 0.00 | 99 | 1018.0 |
| 20260502070626 | 8 | 272 | 0.0 | 0.0 | 0.00 | 0.08 | 0.00 | 99 | 1017.8 |
| 20260502070126 | 8 | 264 | 0.0 | 0.0 | 0.00 | 0.08 | 0.00 | 99 | 1017.9 |
| 20260502065626 | 8 | 281 | 0.0 | 0.0 | 0.00 | 0.08 | 0.00 | 99 | 1017.9 |
| 20260502065126 | 8 | 273 | 0.0 | 0.0 | 0.00 | 0.08 | 0.00 | 99 | 1018.0 |
| 20260502064626 | 8 | 263 | 0.0 | 0.0 | 0.00 | 0.08 | 0.00 | 99 | 1017.7 |
| 20260502064126 | 8 | 281 | 0.0 | 0.0 | 0.00 | 0.08 | 0.00 | 99 | 1017.8 |
| 20260502063626 | 8 | 269 | 0.0 | 0.0 | 0.00 | 0.08 | 0.00 | 99 | 1017.7 |
| 20260502063126 | 8 | 259 | 0.0 | 0.0 | 0.00 | 0.08 | 0.00 | 99 | 1017.9 |
| 20260502062626 | 8 | 258 | 0.0 | 0.0 | 0.00 | 0.08 | 0.00 | 99 | 1017.8 |
| 20260502062126 | 8 | 250 | 0.0 | 0.0 | 0.00 | 0.08 | 0.00 | 99 | 1017.8 |
| 20260502061627 | 8 | 252 | 0.0 | 0.0 | 0.00 | 0.08 | 0.00 | 99 | 1017.7 |
| 20260502061126 | 7 | 239 | 0.0 | 0.0 | 0.00 | 0.08 | 0.00 | 99 | 1017.6 |
| 20260502060623 | 7 | 239 | 0.0 | 0.0 | 0.00 | 0.08 | 0.00 | 99 | 1017.8 |
| 20260502060126 | 7 | 222 | 0.0 | 0.0 | 0.00 | 0.08 | 0.00 | 99 | 1017.7 |
| 20260502055626 | 7 | 219 | 0.0 | 0.0 | 0.00 | 0.08 | 0.00 | 99 | 1017.8 |
| 20260502055126 | 7 | 199 | 0.0 | 0.0 | 0.00 | 0.08 | 0.00 | 99 | 1017.8 |
| 20260502054626 | 8 | 188 | 0.0 | 0.0 | 0.00 | 0.08 | 0.00 | 99 | 1017.6 |
| 20260502054126 | 7 | 241 | 0.0 | 0.0 | 0.00 | 0.08 | 0.00 | 99 | 1017.7 |
| 20260502053626 | 7 | 174 | 0.0 | 0.0 | 0.00 | 0.08 | 0.00 | 99 | 1017.6 |
| 20260502053126 | 7 | 138 | 0.0 | 0.0 | 0.00 | 0.08 | 0.00 | 99 | 1017.7 |
| 20260502052620 | 7 | 179 | 0.0 | 0.0 | 0.00 | 0.08 | 0.00 | 99 | 1017.5 |
| 20260502052114 | 7 | 200 | 0.0 | 0.0 | 0.00 | 0.08 | 0.00 | 99 | 1017.7 |
| 20260502051551 | 7 | 201 | 0.0 | 0.0 | 0.00 | 0.08 | 0.00 | 99 | 1017.6 |
| 20260502051051 | 7 | 208 | 0.0 | 0.0 | 0.00 | 0.08 | 0.00 | 99 | 1017.7 |
| 20260502050538 | 6 | 259 | 0.0 | 0.0 | 0.00 | 0.08 | 0.00 | 99 | 1017.8 |
| 20260502050038 | 6 | 264 | 0.0 | 0.0 | 0.00 | 0.08 | 0.00 | 99 | 1017.7 |
| 20260502045538 | 6 | 266 | 0.0 | 0.0 | 0.00 | 0.08 | 0.00 | 99 | 1017.9 |
| 20260502045038 | 6 | 263 | 0.0 | 0.0 | 0.00 | 0.08 | 0.00 | 99 | 1018.0 |
| 20260502044538 | 6 | 264 | 0.0 | 0.0 | 0.00 | 0.08 | 0.00 | 99 | 1017.8 |
| 20260502044038 | 6 | 267 | 0.0 | 0.0 | 0.00 | 0.08 | 0.00 | 99 | 1017.5 |
| 20260502043540 | 6 | 265 | 0.0 | 0.0 | 0.00 | 0.08 | 0.00 | 99 | 1017.7 |
| 20260502043038 | 6 | 267 | 0.0 | 0.0 | 0.00 | 0.08 | 0.00 | 99 | 1017.7 |
| 20260502042538 | 6 | 263 | 0.0 | 0.0 | 0.00 | 0.08 | 0.00 | 99 | 1017.7 |
| 20260502042039 | 6 | 266 | 0.0 | 0.0 | 0.00 | 0.08 | 0.00 | 99 | 1017.7 |
| 20260502041538 | 6 | 263 | 0.0 | 0.0 | 0.00 | 0.08 | 0.00 | 99 | 1017.7 |
| 20260502041038 | 6 | 260 | 0.0 | 0.0 | 0.00 | 0.08 | 0.00 | 99 | 1017.6 |
| 20260502040538 | 6 | 261 | 0.0 | 0.0 | 0.00 | 0.08 | 0.00 | 99 | 1017.8 |
| 20260502040038 | 6 | 260 | 0.0 | 0.0 | 0.00 | 0.08 | 0.00 | 99 | 1017.8 |
| 20260502035538 | 6 | 260 | 0.0 | 0.0 | 0.00 | 0.08 | 0.00 | 99 | 1018.0 |
| 20260502035038 | 6 | 260 | 0.0 | 0.0 | 0.00 | 0.08 | 0.00 | 99 | 1017.9 |
| 20260502034526 | 7 | 262 | 0.0 | 0.0 | 0.00 | 0.08 | 0.00 | 99 | 1018.2 |
| 20260502034026 | 7 | 267 | 0.0 | 0.0 | 0.00 | 0.08 | 0.00 | 99 | 1017.8 |
| 20260502033526 | 7 | 263 | 0.0 | 0.0 | 0.00 | 0.08 | 0.00 | 99 | 1017.8 |
| 20260502033027 | 7 | 262 | 0.0 | 0.0 | 0.00 | 0.08 | 0.00 | 99 | 1018.0 |
| 20260502032526 | 7 | 263 | 0.0 | 0.0 | 0.00 | 0.08 | 0.00 | 99 | 1017.9 |
| 20260502032026 | 7 | 263 | 0.0 | 0.0 | 0.00 | 0.08 | 0.00 | 99 | 1018.0 |
| 20260502031526 | 7 | 261 | 0.0 | 0.0 | 0.00 | 0.08 | 0.00 | 99 | 1018.0 |
| 20260502031014 | 7 | 246 | 0.0 | 0.0 | 0.00 | 0.08 | 0.00 | 99 | 1018.2 |
| 20260502030515 | 7 | 261 | 0.0 | 0.0 | 0.00 | 0.08 | 0.00 | 99 | 1018.0 |
| 20260502030016 | 7 | 267 | 0.0 | 0.0 | 0.00 | 0.08 | 0.00 | 99 | 1018.2 |
| 20260502025502 | 7 | 263 | 0.0 | 0.0 | 0.00 | 0.08 | 0.00 | 99 | 1018.2 |
| 20260502025002 | 7 | 265 | 0.0 | 0.0 | 0.00 | 0.08 | 0.00 | 99 | 1018.0 |
| 20260502024438 | 7 | 280 | 0.0 | 0.0 | 0.00 | 0.08 | 0.00 | 99 | 1018.0 |
| 20260502023938 | 7 | 270 | 0.0 | 0.0 | 0.00 | 0.08 | 0.00 | 99 | 1018.2 |
| 20260502023438 | 7 | 259 | 0.0 | 0.0 | 0.00 | 0.08 | 0.00 | 99 | 1018.2 |
| 20260502022938 | 7 | 258 | 0.0 | 0.0 | 0.00 | 0.08 | 0.00 | 99 | 1018.2 |
| 20260502022438 | 7 | 252 | 0.0 | 0.0 | 0.00 | 0.08 | 0.00 | 99 | 1018.3 |
| 20260502021940 | 7 | 233 | 0.0 | 0.0 | 0.00 | 0.08 | 0.00 | 99 | 1018.2 |
| 20260502021438 | 7 | 247 | 0.0 | 0.0 | 0.00 | 0.08 | 0.00 | 99 | 1018.0 |
| 20260502020938 | 8 | 249 | 0.0 | 0.0 | 0.00 | 0.08 | 0.00 | 99 | 1018.2 |
| 20260502020438 | 8 | 274 | 0.0 | 0.0 | 0.00 | 0.08 | 0.00 | 99 | 1018.4 |
| 20260502015938 | 8 | 298 | 0.0 | 0.0 | 0.00 | 0.08 | 0.00 | 99 | 1018.2 |
| 20260502015438 | 8 | 270 | 0.0 | 0.0 | 0.00 | 0.08 | 0.00 | 99 | 1018.0 |
| 20260502014938 | 8 | 295 | 0.0 | 0.0 | 0.00 | 0.08 | 0.00 | 99 | 1018.3 |
| 20260502014438 | 8 | 265 | 0.0 | 0.0 | 0.00 | 0.08 | 0.00 | 99 | 1018.3 |
| 20260502013938 | 8 | 264 | 0.0 | 0.0 | 0.00 | 0.08 | 0.00 | 99 | 1018.4 |
| 20260502013438 | 8 | 266 | 0.0 | 0.0 | 0.00 | 0.08 | 0.00 | 99 | 1018.6 |
| 20260502012938 | 8 | 247 | 0.0 | 0.0 | 0.00 | 0.08 | 0.00 | 99 | 1018.6 |
| 20260502012438 | 8 | 245 | 0.0 | 0.0 | 0.00 | 0.08 | 0.00 | 99 | 1018.5 |
| 20260502011938 | 8 | 261 | 0.0 | 0.0 | 0.00 | 0.08 | 0.00 | 99 | 1018.6 |
| 20260502011438 | 8 | 259 | 0.0 | 0.0 | 0.00 | 0.08 | 0.00 | 99 | 1018.7 |
| 20260502010938 | 8 | 264 | 0.0 | 0.0 | 0.00 | 0.08 | 0.00 | 99 | 1018.6 |
| 20260502010438 | 8 | 262 | 0.0 | 0.0 | 0.00 | 0.08 | 0.00 | 99 | 1018.8 |
| 20260502005938 | 8 | 244 | 0.0 | 0.0 | 0.00 | 0.08 | 0.00 | 99 | 1018.7 |
| 20260502005438 | 8 | 256 | 0.0 | 0.0 | 0.00 | 0.08 | 0.00 | 99 | 1018.8 |
| 20260502004939 | 8 | 271 | 0.0 | 0.0 | 0.00 | 0.08 | 0.00 | 99 | 1019.0 |
| 20260502004438 | 9 | 274 | 0.0 | 0.0 | 0.00 | 0.08 | 0.00 | 99 | 1019.0 |
| 20260502003939 | 9 | 303 | 0.0 | 0.0 | 0.00 | 0.08 | 0.00 | 99 | 1018.9 |
| 20260502003438 | 9 | 267 | 0.0 | 0.0 | 0.00 | 0.08 | 0.00 | 99 | 1019.0 |
| 20260502002926 | 9 | 272 | 0.0 | 0.0 | 0.00 | 0.08 | 0.00 | 99 | 1019.1 |
| 20260502002426 | 9 | 274 | 0.0 | 0.0 | 0.00 | 0.08 | 0.00 | 99 | 1019.0 |
| 20260502001926 | 9 | 260 | 0.0 | 0.0 | 0.00 | 0.08 | 0.00 | 99 | 1019.1 |
| 20260502001427 | 9 | 250 | 0.0 | 0.0 | 0.00 | 0.08 | 0.00 | 99 | 1019.3 |
| 20260502000926 | 10 | 265 | 0.0 | 0.0 | 0.00 | 0.08 | 0.00 | 99 | 1019.2 |
| 20260502000426 | 10 | 268 | 0.0 | 0.0 | 0.00 | 0.08 | 0.00 | 99 | 1019.3 |
| 20260501235926 | 10 | 249 | 0.0 | 0.0 | 0.00 | 0.08 | 0.00 | 99 | 1019.4 |
| 20260501235426 | 10 | 228 | 0.0 | 0.0 | 0.00 | 0.08 | 0.00 | 99 | 1019.4 |
| 20260501234926 | 10 | 233 | 0.0 | 0.0 | 0.00 | 0.08 | 0.00 | 99 | 1019.2 |
| 20260501234426 | 10 | 243 | 0.0 | 0.0 | 0.00 | 0.08 | 0.00 | 99 | 1019.6 |
| 20260501233927 | 10 | 224 | 0.0 | 0.0 | 0.00 | 0.08 | 0.00 | 99 | 1019.6 |
| 20260501233426 | 11 | 268 | 0.0 | 0.0 | 0.00 | 0.08 | 0.00 | 99 | 1019.4 |
| 20260501232926 | 11 | 252 | 0.0 | 0.0 | 0.00 | 0.08 | 0.00 | 99 | 1019.4 |
| 20260501232426 | 11 | 252 | 0.0 | 0.0 | 0.00 | 0.08 | 0.00 | 99 | 1019.3 |
| 20260501231926 | 11 | 263 | 0.0 | 0.0 | 0.00 | 0.08 | 0.00 | 99 | 1019.3 |
| 20260501231419 | 11 | 244 | 0.0 | 0.0 | 0.00 | 0.08 | 0.00 | 99 | 1019.4 |
| 20260501230914 | 11 | 262 | 0.0 | 0.0 | 0.00 | 0.08 | 0.00 | 99 | 1019.3 |
| 20260501230414 | 11 | 263 | 0.0 | 0.0 | 0.00 | 0.08 | 0.00 | 99 | 1019.5 |
| 20260501225902 | 11 | 243 | 0.0 | 0.0 | 0.00 | 0.08 | 0.08 | 99 | 1019.3 |
| 20260501225402 | 11 | 259 | 0.0 | 0.0 | 0.00 | 0.08 | 0.08 | 99 | 1019.5 |
| 20260501224902 | 11 | 285 | 0.0 | 0.0 | 0.00 | 0.08 | 0.08 | 99 | 1019.5 |
| 20260501224401 | 11 | 263 | 0.0 | 0.0 | 0.00 | 0.08 | 0.08 | 99 | 1019.4 |
| 20260501223902 | 11 | 280 | 0.0 | 0.0 | 0.00 | 0.08 | 0.08 | 99 | 1019.4 |
| 20260501223401 | 11 | 266 | 0.0 | 0.0 | 0.00 | 0.08 | 0.08 | 99 | 1019.4 |
| 20260501222902 | 11 | 241 | 0.0 | 0.0 | 0.00 | 0.08 | 0.08 | 99 | 1019.3 |
| 20260501222350 | 11 | 284 | 0.0 | 0.0 | 0.00 | 0.08 | 0.08 | 99 | 1019.2 |
| 20260501221850 | 11 | 324 | 0.0 | 0.0 | 0.00 | 0.08 | 0.08 | 99 | 1019.2 |